Location: ????????
(55.1591°N, 39.1782°E)
Time: 13:42:58
(UTC+00:00)

Cosmos 1484 Rocket - Pass Details

Date: 14 April 2024
Orbit: 480 x 524 km, 97.6° (Epoch: 23 May)

Event Time Altitude Azimuth Distance (km) Brightness Sun altitude
Rises 01:31:10 0° 19° (NNE) 2,592 7.1 -7.4°
Reaches altitude 10° 01:33:22 10° 28° (NNE) 1,696 6.3 -7.2°
Maximum altitude 01:36:48 38° 98° (E) 763 4.1 -6.7°
Drops below altitude 10° 01:40:09 10° 168° (SSE) 1,664 5.1 -6.3°
Sets 01:42:18 0° 176° (S) 2,535 6.0 -6.0°
